Weather observations for the past three days for
Destin, Destin-Ft. Walton Beach Airport
Imperial (Metric)
Date Time (cdt) Wind (mph) Vis. (mi.) Weather Sky Cond. Temperature (ºF) Relative Humidity Wind Chill (°F) Heat Index (°F) Pressure Precipitation (in)
Air Dwpt 6 hour altimeter (in) sea level (mb) 1 hr 3 hr 6 hr
Max. Min.
13 02:53 NE 5 10.00 Fair CLR 78.1 64 62% 80 29.87 1011.3
13 01:53 N 6 10.00 Fair CLR 77 66 69% 79 29.88 1011.6
13 00:53 N 6 10.00 Fair CLR 79 64.9 88 79 62% 81 29.89 1012.0
12 23:53 N 7 10.00 Fair CLR 80.1 64 58% 82 29.9 1012.5
12 22:53 N 5 10.00 Fair CLR 81 64.9 58% 83 29.91 1012.8
12 21:53 N 9 10.00 Fair CLR 82 64.9 56% 84 29.9 1012.3
12 20:53 N 6 10.00 Fair CLR 84 64.9 53% 86 29.89 1012.0
12 19:53 Vrbl 3 10.00 Fair CLR 86 70 59% 91 29.88 1011.9
12 18:53 Vrbl 3 10.00 Fair CLR 88 69.1 91.9 87.1 54% 92 29.88 1011.9
12 17:53 SW 5 10.00 Fair CLR 88 68 52% 92 29.87 1011.6
12 16:53 Vrbl 6 10.00 Fair CLR 90 66.9 47% 93 29.88 1011.7
12 15:53 Vrbl 3 10.00 Fair CLR 91 66 44% 94 29.89 1012.0
12 14:53 Vrbl 6 10.00 Fair CLR 90 64.9 44% 92 29.9 1012.4
12 13:53 Vrbl 6 10.00 Fair CLR 90 64.9 44% 92 29.91 1012.7
12 12:53 Vrbl 5 10.00 Fair CLR 89.1 64 91.9 78.1 43% 90 29.92 1012.9
12 11:53 Vrbl 5 10.00 Fair CLR 91 66 44% 94 29.93 1013.3
12 10:53 Vrbl 5 10.00 Fair CLR 90 64.9 44% 92 29.94 1013.6
12 09:53 Vrbl 6 10.00 Fair CLR 86 66 51% 88 29.94 1013.8
12 08:53 N 3 10.00 Fair CLR 82.9 66 57% 85 29.94 1013.6
12 06:53 NE 6 10.00 Fair CLR 78.1 64 80.1 75 62% 80 29.91 1012.8
12 05:53 N 6 10.00 Fair CLR 75 64 69% 77 29.89 1012.1
12 04:53 N 7 10.00 Fair CLR 75.9 63 64% 78 29.88 1011.9
12 03:53 N 7 10.00 Fair CLR 75.9 62.1 62% 78 29.88 1011.6
12 02:53 N 5 10.00 Fair CLR 78.1 62.1 58% 80 29.87 1011.6
12 01:53 N 6 10.00 Fair CLR 79 62.1 56% 80 29.87 1011.4
12 00:53 NE 7 10.00 Fair CLR 80.1 62.1 87.1 80.1 54% 81 29.88 1011.8
11 23:53 NE 7 10.00 Fair CLR 81 62.1 53% 82 29.89 1012.0
11 22:53 NE 7 10.00 Fair CLR 82 63 53% 83 29.88 1011.7
11 21:53 N 7 10.00 Fair CLR 82.9 63 51% 84 29.86 1011.1
11 20:53 N 8 10.00 Fair CLR 84.9 63 48% 86 29.85 1010.8
11 19:53 N 8 10.00 Fair CLR 84.9 66.9 55% 88 29.84 1010.4
11 18:53 Vrbl 3 10.00 Fair CLR 87.1 71.1 95 86 59% 93 29.82 1009.9
11 17:53 Vrbl 5 10.00 Fair CLR 89.1 66.9 48% 92 29.82 1009.6
11 16:53 Vrbl 3 10.00 A Few Clouds FEW070 91 69.1 49% 96 29.81 1009.3
11 15:53 SW 7 10.00 Fair CLR 90 70 52% 95 29.81 1009.4
11 14:53 Vrbl 3 10.00 A Few Clouds FEW065 93.9 66 40% 97 29.82 1009.8
11 13:53 Vrbl 7 10.00 Fair CLR 93 66 41% 96 29.84 1010.4
11 12:53 Vrbl 5 10.00 Fair CLR 91.9 66 91.9 77 43% 95 29.85 1010.8
11 11:53 Vrbl 7 10.00 Fair CLR 90 64.9 44% 92 29.85 1010.8
11 10:53 E 7 10.00 Fair CLR 87.1 64 46% 88 29.86 1011.1
11 09:53 NE 8 10.00 Fair CLR 86 64 48% 87 29.86 1011.1
11 08:53 NE 9 10.00 Fair CLR 82 64.9 56% 84 29.86 1011.0
11 07:53 NE 7 10.00 Fair CLR 80.1 64.9 60% 82 29.86 1011.0
11 06:53 N 7 10.00 Fair CLR 78.1 68 82 77 71% 80 29.85 1010.9
11 05:53 N 7 10.00 Fair CLR 77 69.1 77% 79 29.83 1010.2
11 04:53 N 7 10.00 Fair CLR 77 71.1 82% 79 29.83 1010.0
11 03:53 N 5 10.00 Fair CLR 79 73 82% 82 29.82 1009.8
11 02:53 Calm 10.00 Mostly Cloudy BKN041 79 75 88% 83 29.81 1009.5
11 01:53 N 6 10.00 Fair CLR 80.1 73.9 82% 85 29.82 1009.7
11 00:53 NW 3 10.00 Partly Cloudy SCT110 82 75 84.9 81 79% 89 29.83 1010.0
10 23:53 Calm 10.00 Overcast OVC100 82.9 73.9 74% 89 29.83 1010.0
10 22:53 Calm 10.00 Partly Cloudy SCT100 81 73.9 79% 86 29.83 1009.9
10 21:53 Calm 10.00 Overcast OVC100 82 73.9 77% 88 29.82 1009.6
10 20:53 Calm 10.00 Overcast OVC080 82 73.9 77% 88 29.79 1008.8
10 19:53 N 3 10.00 A Few Clouds FEW085 82 73 74% 87 29.78 1008.3
10 18:53 Vrbl 7 10.00 A Few Clouds FEW080 86 73 89.1 86 65% 93 29.77 1007.9
10 17:53 Vrbl 7 10.00 A Few Clouds FEW100 86 73.9 67% 94 29.76 1007.8
10 16:53 Vrbl 7 10.00 A Few Clouds FEW060 87.1 75.9 70% 98 29.76 1007.7
10 15:53 W 8 10.00 Fair CLR 87.1 75.9 70% 98 29.77 1007.9
10 14:53 Vrbl 5 10.00 Fair CLR 88 78.1 73% 102 29.77 1008.1
10 13:53 S 7 10.00 Fair CLR 88 77 70% 100 29.8 1009.0
10 12:53 Vrbl 7 10.00 Fair CLR 87.1 77 90 82 72% 99 29.82 1009.8
10 11:53 Calm 10.00 Fair CLR 88 77 70% 100 29.84 1010.3
10 10:53 Vrbl 7 10.00 Fair CLR 87.1 75.9 70% 98 29.84 1010.3
10 09:53 Vrbl 5 10.00 Fair CLR 87.1 75 67% 97 29.84 1010.4
10 08:53 NW 6 10.00 Fair CLR 84.9 73.9 70% 92 29.85 1010.7
10 07:53 Vrbl 6 10.00 Fair CLR 82.9 75 77% 90 29.84 1010.5
10 06:53 Calm 10.00 Fair CLR 82 75 82 78.1 79% 89 29.84 1010.2
10 05:53 Calm 10.00 Fair CLR 78.1 73.9 87% 81 29.83 1010.0
10 04:53 Calm 10.00 Fair CLR 81 73.9 79% 86 29.83 1009.9
10 03:53 Vrbl 5 10.00 Fair CLR 82 73 74% 87 29.82 1009.7
Date Time (cdt) Wind (mph) Vis. (mi.) Weather Sky Cond. Air Dwpt Max. Min. Relative Humidity Wind Chill (°F) Heat Index (°F) altimeter (in) sea level (mb) 1 hr 3 hr 6 hr
6 hour
Temperature (ºF) Pressure Precipitation (in)